Regional Weather Roundup
Issued by NWS State College, PA

Home | Current Version | Previous Version | Text Only | Print | Product List | Glossary On
Versions: 1 2 3 4 5 6 7 8 9 10 11 12 13 14 15 16 17 18 19 20 21 22 23 24 25 26 27 28 29 30 31 32 33 34 35 36 37 38 39 40 41 42 43 44 45 46 47 48 49 50
000
ASUS41 KCTP 260010
RWRCTP

REGIONAL WEATHER ROUNDUP
NATIONAL WEATHER SERVICE STATE COLLEGE PA
800 PM EDT MON JUL 25 2016

Note: "fair" indicates few or no clouds below 12,000 feet with no
significant weather and/or obstructions to visibility.

* = STATION THAT DOES NOT REPORT PRECIPITATION /E.G. RAIN...SNOW...ETC/
    THUNDER OR FOG.

PAZ002>004-007>009-013>016-020>023-029>032-260100-
WESTERN PENNSYLVANIA

CITY           SKY/WX    TMP DP  RH WIND       PRES   REMARKS
ERIE           CLEAR     80  71  74 W7G18     29.92R
MEADVILLE      CLEAR     78  65  63 NW3       29.96R
FRANKLIN*      CLEAR     79  66  65 NW5       29.99R
NEW CASTLE     FAIR      85  69  58 SW3       29.95R
BEAVER COUNTY  CLEAR     84  66  54 W5        29.96R
BUTLER*        CLEAR     84  70  61 W5        29.98S
PITTSBURGH INT PTCLDY    87  66  49 NW7       29.95R
PITTSBURGH     PTCLDY    84  73  69 SE5       29.95R
INDIANA*       PTCLDY    81  75  83 SW5       29.99R
LATROBE        MOCLDY    81  75  83 SW9       29.96S
WASHINGTON CO* PTCLDY    82  72  69 S8        29.98R
$$

PAZ004>006-010>012-017>019-024>028-033>037-041-042-045-046-049>053-260100-
CENTRAL PENNSYLVANIA

CITY           SKY/WX    TMP DP  RH WIND       PRES   REMARKS
BRADFORD       PTCLDY    76  67  73 W7        29.99R
DUBOIS         CLOUDY    79  72  79 CALM      29.96R
CLEARFIELD     CLOUDY    76  72  87 CALM      29.95S
JOHNSTOWN      PTCLDY    76  66  71 SW9       30.01S
ALTOONA        CLOUDY    82  67  60 W6        29.96S
STATE COLLEGE  CLEAR     77  72  83 S6        29.94R
WILLIAMSPORT   PTCLDY    74  68  81 SW3       29.91R
SELINSGROVE    CLOUDY    74  73  97 CALM      29.93R
FT INDIANTOWN  CLOUDY    71  69  91 NW1       29.92S
CAPITAL CITY   CLOUDY    76  72  87 E6        29.91F
HARRISBURG     CLOUDY    74  74 100 VRB3      29.91F
YORK           TSTM      74  71  91 NW8       29.95R VSB 3/4
$$

PAZ038>040-043-044-047-048-054-055-060>062-067>071-260100-
EASTERN PENNSYLVANIA

CITY           SKY/WX    TMP DP  RH WIND       PRES   REMARKS
SCRANTON       CLOUDY    73  72  96 SW7       29.90R
MOUNT POCONO   CLOUDY    69  67  93 CALM      29.94F
ALLENTOWN      LGT RAIN  73  70  90 S6        29.90S
QUAKERTOWN*    CLOUDY    73  72  94 CALM      29.94S
READING        RAIN      72  69  90 S8        29.91S
LANCASTER      TSTM      72  70  93 VRB3      29.93S
COATESVILLE    CLOUDY    73  70  88 NE5G13    29.95R
POTTSTOWN      LGT RAIN  71  70  96 CALM      29.95R
BLUE BELL      CLOUDY    72  70  94 CALM      29.93S
DOYLESTOWN     LGT RAIN  71  71 100 S3        29.93R
WILLOW GROVE   NOT AVBL
NORTH PHILA    LGT RAIN  75  73  93 NW5       29.95S
PHILADELPHIA   TSTM      74  72  93 NE10      29.92F FOG
$$



USA.gov is the U.S. government's official web portal to all federal, state and local government web resources and services.